Date String (YYYY-MM-DD hh:mm:ss) UTC,Instrument flags,Ambient pressure (hPa),Sample flow (lpm),Bypass flow (lpm),Sample temperature (°C),Ambient temperature (°C),ASC tube jacket temperature (°C),LED temperature (°C),Box temperature (°C),Sample RH (%),Span deviation,Mass concentration (μg/m³),Mass concentration (μg/m³),Mass concentration (μg/m³)
DateTimeUTC,F1_M11,P_M11,Q1_M11,Q2_M11,T1_M11,T2_M11,T3_M11,T4_M11,T5_M11,U1_M11,ZSPAN_M11,X0_M11,X2_M11,X1_M11
2022-04-01 11:00:00,,0817.4,5.00,0.00,26.1,25.0,00.0,35.3,27.7,12.5,0000.0,0009.88,0003.95,0003.01
2022-04-01 11:01:00,,0817.3,5.00,0.00,26.0,25.0,00.0,35.3,27.7,12.5,0000.0,0009.96,0003.99,0002.99
2022-04-01 11:02:00,,0817.4,5.01,0.00,26.0,25.0,00.0,35.2,27.6,12.5,0000.0,0009.77,0003.98,0002.98
2022-04-01 11:03:00,,0817.4,5.00,0.00,25.9,25.0,00.0,35.2,27.6,12.5,0000.0,0009.01,0003.96,0002.97
2022-04-01 11:04:00,,0817.4,5.01,0.00,25.9,24.9,00.0,35.2,27.5,12.6,0000.0,0009.59,0003.96,0002.97
2022-04-01 11:05:00,,0817.3,5.00,0.00,25.9,24.8,00.0,35.2,27.5,12.7,0000.0,0011.05,0003.97,0002.95
2022-04-01 11:06:00,,0817.4,5.00,0.00,25.8,24.8,00.0,35.1,27.5,12.8,0000.0,0011.54,0003.96,0002.92
2022-04-01 11:07:00,,0817.4,5.00,0.00,25.8,24.8,00.0,35.1,27.5,12.8,0000.0,0011.71,0003.94,0002.89
2022-04-01 11:08:00,,0817.4,5.00,0.00,25.8,24.8,00.0,35.1,27.4,12.8,0000.0,0011.60,0003.90,0002.89
2022-04-01 11:09:00,,0817.4,4.99,0.00,25.8,24.8,00.0,35.0,27.5,12.9,0000.0,0011.16,0003.89,0002.90
2022-04-01 11:10:00,,0817.4,5.00,0.00,25.7,24.7,00.0,35.0,27.4,12.9,0000.0,0010.72,0003.90,0002.91
2022-04-01 11:11:00,,0817.4,5.01,0.00,25.7,24.7,00.0,35.0,27.4,12.9,0000.0,0010.73,0003.86,0002.90
2022-04-01 11:12:00,,0817.4,4.99,0.00,25.7,24.7,00.0,35.0,27.4,13.0,0000.0,0010.66,0003.84,0002.93
2022-04-01 11:13:00,,0817.4,5.00,0.00,25.7,24.7,00.0,35.0,27.4,13.1,0000.0,0010.64,0003.83,0002.94
2022-04-01 11:14:00,,0817.5,5.00,0.00,25.7,24.6,00.0,34.9,27.3,13.1,0000.0,0010.55,0003.81,0002.94
2022-04-01 11:15:00,,0817.5,4.99,0.00,25.6,24.6,00.0,34.9,27.3,13.2,0000.0,0009.68,0003.77,0002.96
2022-04-01 11:16:00,,0817.5,5.00,0.00,25.6,24.7,00.0,34.9,27.3,13.2,0000.0,0008.18,0003.75,0002.98
2022-04-01 11:17:00,,0817.5,5.01,0.00,25.6,24.7,00.0,34.8,27.3,13.4,0000.0,0007.97,0003.74,0002.98
2022-04-01 11:18:00,,0817.5,5.00,0.00,25.6,24.7,00.0,34.8,27.3,13.4,0000.0,0008.12,0003.75,0002.99
2022-04-01 11:19:00,,0817.5,4.99,0.00,25.6,24.6,00.0,34.8,27.2,13.5,0000.0,0008.44,0003.74,0002.98
2022-04-01 11:20:00,,0817.5,5.00,0.00,25.5,24.6,00.0,34.8,27.2,13.6,0000.0,0008.89,0003.73,0002.95
2022-04-01 11:21:00,,0817.4,5.02,0.00,25.5,24.6,00.0,34.8,27.2,13.7,0000.0,0008.73,0003.71,0002.94
2022-04-01 11:22:00,,0817.4,5.00,0.00,25.5,24.6,00.0,34.7,27.2,13.7,0000.0,0008.62,0003.72,0002.92
2022-04-01 11:23:00,,0817.5,4.99,0.00,25.5,24.6,00.0,34.7,27.2,13.8,0000.0,0009.18,0003.68,0002.89
2022-04-01 11:24:00,,0817.5,5.00,0.00,25.5,24.6,00.0,34.7,27.2,13.9,0000.0,0009.27,0003.68,0002.85
2022-04-01 11:25:00,,0817.4,5.01,0.00,25.4,24.5,00.0,34.7,27.1,14.0,0000.0,0009.18,0003.65,0002.83
2022-04-01 11:26:00,,0817.4,5.00,0.00,25.4,24.4,00.0,34.7,27.1,14.1,0000.0,0009.27,0003.67,0002.79
2022-04-01 11:27:00,,0817.4,4.99,0.00,25.4,24.3,00.0,34.6,27.0,14.1,0000.0,0009.69,0003.68,0002.77
2022-04-01 11:28:00,,0817.4,5.01,0.00,25.3,24.2,00.0,34.6,26.9,14.2,0000.0,0009.44,0003.64,0002.74
2022-04-01 11:29:00,,0817.5,5.01,0.00,25.3,24.2,00.0,34.6,26.9,14.3,0000.0,0008.94,0003.60,0002.72
2022-04-01 11:30:00,,0817.5,5.00,0.00,25.2,24.2,00.0,34.5,26.8,14.3,0000.0,0008.90,0003.60,0002.70
2022-04-01 11:31:00,,0817.5,4.99,0.00,25.2,24.2,00.0,34.5,26.8,14.3,0000.0,0008.34,0003.60,0002.68
2022-04-01 11:32:00,,0817.6,5.00,0.00,25.2,24.1,00.0,34.5,26.8,14.4,0000.0,0008.28,0003.58,0002.65
2022-04-01 11:33:00,,0817.6,5.00,0.00,25.2,24.1,00.0,34.4,26.9,14.4,0000.0,0008.31,0003.55,0002.64
2022-04-01 11:34:00,,0817.6,5.01,0.00,25.2,24.1,00.0,34.4,26.9,14.4,0000.0,0008.40,0003.54,0002.61
2022-04-01 11:35:00,,0817.5,5.01,0.00,25.1,24.1,00.0,34.4,26.8,14.4,0000.0,0008.79,0003.49,0002.59
2022-04-01 11:36:00,,0817.5,4.99,0.00,25.1,24.0,00.0,34.4,26.8,14.5,0000.0,0009.59,0003.50,0002.58
2022-04-01 11:37:00,,0817.6,5.00,0.00,25.1,24.0,00.0,34.3,26.7,14.5,0000.0,0009.60,0003.49,0002.57
2022-04-01 11:38:00,,0817.6,5.00,0.00,25.1,24.0,00.0,34.3,26.7,14.5,0000.0,0009.29,0003.48,0002.55
2022-04-01 11:39:00,,0817.6,5.00,0.00,25.1,24.1,00.0,34.3,26.8,14.5,0000.0,0009.16,0003.48,0002.54
2022-04-01 11:40:00,,0817.6,5.02,0.00,25.1,24.1,00.0,34.3,26.8,14.5,0000.0,0009.21,0003.48,0002.52
2022-04-01 11:41:00,,0817.6,5.00,0.00,25.0,24.1,00.0,34.3,26.7,14.5,0000.0,0009.15,0003.48,0002.51
2022-04-01 11:42:00,,0817.6,5.00,0.00,25.0,24.0,00.0,34.3,26.7,14.5,0000.0,0009.07,0003.44,0002.49
2022-04-01 11:43:00,,0817.6,4.99,0.00,25.0,24.0,00.0,34.2,26.7,14.6,0000.0,0009.03,0003.43,0002.48
2022-04-01 11:44:00,,0817.6,5.01,0.00,25.0,24.0,00.0,34.2,26.7,14.5,0000.0,0009.05,0003.45,0002.46
2022-04-01 11:45:00,,0817.6,5.00,0.00,25.0,24.0,00.0,34.2,26.7,14.5,0000.0,0008.48,0003.44,0002.44
2022-04-01 11:46:00,,0817.7,5.00,0.00,25.0,23.9,00.0,34.2,26.6,14.6,0000.0,0008.25,0003.42,0002.43
2022-04-01 11:47:00,,0817.7,5.00,0.00,24.9,23.9,00.0,34.1,26.6,14.6,0000.0,0007.28,0003.42,0002.43
2022-04-01 11:48:00,,0817.7,4.99,0.00,24.9,23.9,00.0,34.1,26.6,14.6,0000.0,0007.18,0003.40,0002.43
2022-04-01 11:49:00,,0817.7,5.00,0.00,24.9,23.9,00.0,34.1,26.6,14.6,0000.0,0007.75,0003.40,0002.43
2022-04-01 11:50:00,,0817.7,5.00,0.00,24.9,23.9,00.0,34.1,26.6,14.6,0000.0,0008.10,0003.40,0002.42
2022-04-01 11:51:00,,0817.8,5.00,0.00,24.9,23.9,00.0,34.1,26.6,14.7,0000.0,0008.11,0003.41,0002.42
2022-04-01 11:52:00,,0817.8,5.00,0.00,24.9,23.9,00.0,34.1,26.6,14.7,0000.0,0007.95,0003.38,0002.42
2022-04-01 11:53:00,,0817.9,5.00,0.00,24.9,23.9,00.0,34.1,26.6,14.6,0000.0,0007.87,0003.37,0002.41
2022-04-01 11:54:00,,0817.9,5.00,0.00,24.9,23.9,00.0,34.0,26.6,14.6,0000.0,0007.94,0003.41,0002.43
2022-04-01 11:55:00,,0817.9,5.01,0.00,24.9,23.8,00.0,34.0,26.6,14.6,0000.0,0007.94,0003.39,0002.44
2022-04-01 11:56:00,,0817.9,5.00,0.00,24.9,23.8,00.0,34.0,26.6,14.6,0000.0,0008.02,0003.36,0002.45
2022-04-01 11:57:00,,0817.8,4.99,0.00,24.9,23.8,00.0,34.0,26.6,14.5,0000.0,0008.13,0003.38,0002.47
2022-04-01 11:58:00,,0817.8,5.00,0.00,24.8,23.8,00.0,34.0,26.5,14.5,0000.0,0008.39,0003.40,0002.48
2022-04-01 11:59:00,,0817.9,5.00,0.00,24.8,23.8,00.0,34.0,26.6,14.5,0000.0,0008.52,0003.45,0002.47
